User: anonymous   Login
Location: Unspecified
(0.0000°N, 0.0000°E)
Time: 18:04:06
(UTC+00:00)
Language:

Landsat 5 - Orbit

View from above orbital plane
View from above orbital plane
View from above satellite
View from above satellite

Ground track
Ground track

The orbit data is extracted from the following two-line orbital elements,

1 14780U 84021A   18110.35427649  .00000495  00000-0  51848-4 0  9994
2 14780  98.0651 233.8171 0089462 237.7366 121.5160 14.91702651821664
Epoch (UTC): 20 April 2018 08:30:09
Eccentricity: 0.0089462
inclination: 98.0651°
perigee height: 530 km
apogee height: 655 km
right ascension of ascending node: 233.8171°
argument of perigee: 237.7366°
revolutions per day: 14.91702651
mean anomaly at epoch: 121.5160°
orbit number at epoch: 82166

The dashed part of the orbit path shows where the satellite is in the earth's shadow,  

DLR